Regional Weather Roundup
Issued by NWS Midland/Odessa, TX

Home | Current Version | Previous Version | Text Only | Print | Product List | Glossary On
Versions: 1 2 3 4 5 6 7 8 9 10 11 12 13 14 15 16 17 18 19 20 21 22 23 24 25 26 27 28 29 30 31 32 33 34 35 36 37 38 39 40 41 42 43 44 45 46 47 48 49 50
000
ASUS44 KMAF 282110
RWRMAF
MIDLAND AREA WEATHER ROUNDUP
NATIONAL WEATHER SERVICE MIDLAND TX
300 PM CST SAT FEB 28 2015

...IN SOUTHWEST TEXAS AND SOUTHEAST NEW MEXICO...

CITY           SKY/WX    TMP DP  RH WIND       PRES   REMARKS
ALPINE         SUNNY     61  37  41 NE7       30.05F
ANDREWS        CLOUDY    27  26  99 SE7       30.11F FOG     WCI  19
ARTESIA        CLOUDY    28  28 100 S14       30.06F WCI  17
BIG SPRING     CLOUDY    28  26  90 E5        30.18F WCI  23
CARLSBAD       CLOUDY    30  24  78 S13       30.06F WCI  20
DRYDEN           N/A     37  35  92 SE8       30.12F WCI  31
FORT STOCKTON  FOG       35  34  96 NE12      30.08F VSB 3/4 WCI  27
GUAD PASS      NOT AVBL
HOBBS          CLOUDY    27  27 100 SE7       30.07F WCI  19
MARFA          SUNNY     57  34  41 S8G16     30.03F
MIDLAND AIRPK  CLOUDY    30  30 100 SE6       30.14F FOG     WCI  24
MIDLAND INTL   CLOUDY    29  27  92 SE9       30.12F FOG     WCI  20
ODESSA         CLOUDY    30  27  88 SE8       30.12F FOG     WCI  22
PECOS          CLOUDY    30  28  93 CALM      30.12F FOG
PRESIDIO       FAIR      60  36  41 E8        29.99F
SEMINOLE       CLOUDY   N/A N/A N/A S7        30.11F HAZE
SNYDER         CLOUDY   N/A N/A N/A E5        30.19F HAZE
WINK           CLOUDY    33  27  78 E7        30.10F WCI  27
$$
...OTHER STATIONS IN TEXAS...

CITY           SKY/WX    TMP DP  RH WIND       PRES   REMARKS
ABILENE        CLOUDY    27  25  92 SE5       30.23F WCI  22
AMARILLO       CLOUDY    22  19  89 S12       30.09F WCI  10
AUSTIN         DRIZZLE   36  34  92 N13       30.25S FOG     WCI  27
BROWNSVILLE    CLOUDY    51  49  92 NW9       30.12F FOG
CORPUS CHRISTI LGT RAIN  55  53  93 NW12      30.13F FOG
DALLAS FTW     CLOUDY    31  28  89 NE6       30.30F WCI  25
DEL RIO        CLOUDY    43  37  79 E6        30.18F WCI  39
EL PASO        MOSUNNY   60  28  29 VRB7      29.91F
HOUSTON INT    CLOUDY    56  41  57 E8        30.23F
LUBBOCK        CLOUDY    22  20  92 S8        30.11F FOG     WCI  12
SAN ANGELO     CLOUDY    30  28  92 E8        30.21S WCI  22
SAN ANTONIO    LGT RAIN  38  36  92 N10       30.21F VSB 1   WCI  31
WACO           LGT RAIN  34  31  88 N9        30.29S WCI  27
WICHITA FALLS  NOT AVBL
$$
...OTHER LOCATIONS IN NEW MEXICO...

CITY           SKY/WX    TMP DP  RH WIND       PRES   REMARKS
ALAMAGORDO     MOSUNNY   59  28  31 S14       29.92F
ALBUQUERQUE    PTSUNNY   36  25  64 CALM      29.90F
CANNON AFB     CLOUDY    23  23 100 SW15      30.01F WCI  10
CLOVIS         CLOUDY    21  19  93 S12       30.03F WCI   9
HOLLOMAN AFB   MOSUNNY   57  28  33 S9        29.91F
ROSWELL        CLOUDY    27  22  81 S10       30.05F WCI  17
RUIDOSO        SUNNY     50  30  46 SW25      29.91F
SANTA FE       CLOUDY    30  23  75 S6        29.89S WCI  24
TRUTH OR CONSE CLOUDY    57  31  37 SE12      29.85F
TUCUMCARI      CLOUDY    26  20  77 SW16      30.00F WCI  14
$$


USA.gov is the U.S. government's official web portal to all federal, state and local government web resources and services.